Location: La B�doule
(43.2468°N, 5.5934°E)
Time: 08:10:41
(UTC+00:00)

STARLINK-61 - Pass Details

Date: 07 June 2020
Orbit: 505 x 516 km, 53.0° (Epoch: 08 July)

Event Time Altitude Azimuth Distance (km) Brightness Sun altitude
Exits shadow 01:35:58 50° 200° (SSW) 652 3.5 -18.5°
Maximum altitude 01:36:47 67° 141° (SE) 554 3.4 -18.4°
Drops below altitude 10° 01:40:41 10° 59° (ENE) 1,734 7.1 -18.1°
Sets 01:42:54 0° 56° (ENE) 2,626 8.3 -17.9°
